Time,TemperatureF,DewpointF,PressureIn,WindDirection,WindDirectionDegrees,WindSpeedMPH,WindSpeedGustMPH,Humidity,HourlyPrecipIn,Conditions,Clouds,dailyrainin,SolarRadiationWatts/m^2,SoftwareType,DateUTC
2013-03-27 00:00:00,32.0,26.0,-100.00,SW,225,5.0,-999.0,78,-99.99,,,-99.99,0.000000,,2013-03-27 04:00:00,
2013-03-27 00:43:00,32.0,26.0,-100.00,SW,225,5.0,-999.0,78,-99.99,,,-99.99,0.000000,,2013-03-27 04:43:00,
2013-03-27 00:53:00,32.0,26.0,-100.00,SW,225,5.0,-999.0,78,-99.99,,,-99.99,0.000000,,2013-03-27 04:53:00,
2013-03-27 01:00:00,32.0,27.0,-100.00,SW,225,6.0,-999.0,79,-99.99,,,-99.99,0.000000,,2013-03-27 05:00:00,
2013-03-27 01:42:00,32.0,27.0,-100.00,SW,225,6.0,-999.0,79,-99.99,,,-99.99,0.000000,,2013-03-27 05:42:00,
2013-03-27 01:53:00,32.0,27.0,-100.00,SW,225,6.0,-999.0,79,-99.99,,,-99.99,0.000000,,2013-03-27 05:53:00,
2013-03-27 03:00:00,32.0,27.0,-100.00,SW,225,5.0,-999.0,81,-99.99,,,-99.99,0.000000,,2013-03-27 07:00:00,
2013-03-27 03:43:00,32.0,27.0,-100.00,SW,225,5.0,-999.0,81,-99.99,,,-99.99,0.000000,,2013-03-27 07:43:00,
2013-03-27 03:54:00,32.0,27.0,-100.00,SW,225,5.0,-999.0,81,-99.99,,,-99.99,0.000000,,2013-03-27 07:54:00,
2013-03-27 05:00:00,31.0,27.0,-100.00,West,270,5.0,-999.0,84,-99.99,,,-99.99,0.000000,,2013-03-27 09:00:00,
2013-03-27 05:42:00,31.0,27.0,-100.00,West,270,5.0,-999.0,84,-99.99,,,-99.99,0.000000,,2013-03-27 09:42:00,
2013-03-27 05:52:00,31.0,27.0,-100.00,West,270,5.0,-999.0,84,-99.99,,,-99.99,0.000000,,2013-03-27 09:52:00,
2013-03-27 06:00:00,32.0,29.0,-100.00,WNW,292,5.0,-999.0,88,-99.99,,,-99.99,0.000000,,2013-03-27 10:00:00,
2013-03-27 06:42:00,32.0,29.0,-100.00,WNW,292,5.0,-999.0,88,-99.99,,,-99.99,0.000000,,2013-03-27 10:42:00,
2013-03-27 06:53:00,32.0,29.0,-100.00,WNW,292,5.0,-999.0,88,-99.99,,,-99.99,0.000000,,2013-03-27 10:53:00,
2013-03-27 07:00:00,32.0,29.0,-100.00,SW,225,5.0,-999.0,89,-99.99,,,-99.99,0.000000,,2013-03-27 11:00:00,
2013-03-27 07:43:00,32.0,29.0,-100.00,SW,225,5.0,-999.0,89,-99.99,,,-99.99,0.000000,,2013-03-27 11:43:00,
2013-03-27 07:53:00,32.0,29.0,-100.00,SW,225,5.0,-999.0,89,-99.99,,,-99.99,0.000000,,2013-03-27 11:53:00,
2013-03-27 08:00:00,32.0,29.0,-100.00,South,180,6.0,-999.0,88,-99.99,,,-99.99,5.800000,,2013-03-27 12:00:00,
2013-03-27 08:43:00,32.0,29.0,-100.00,South,180,6.0,-999.0,88,-99.99,,,-99.99,5.800000,,2013-03-27 12:43:00,
2013-03-27 08:52:00,32.0,29.0,-100.00,South,180,6.0,-999.0,88,-99.99,,,-99.99,5.800000,,2013-03-27 12:52:00,
2013-03-27 09:00:00,34.0,29.0,-100.00,SSE,157,7.0,-999.0,81,-99.99,,,-99.99,134.559998,,2013-03-27 13:00:00,
2013-03-27 09:42:00,34.0,29.0,-100.00,SSE,157,7.0,-999.0,81,-99.99,,,-99.99,134.559998,,2013-03-27 13:42:00,
2013-03-27 09:53:00,34.0,29.0,-100.00,SSE,157,7.0,-999.0,81,-99.99,,,-99.99,134.559998,,2013-03-27 13:53:00,
2013-03-27 10:00:00,37.0,30.0,-100.00,SW,225,6.0,-999.0,74,-99.99,,,-99.99,312.040009,,2013-03-27 14:00:00,
2013-03-27 10:42:00,37.0,30.0,-100.00,SW,225,6.0,-999.0,74,-99.99,,,-99.99,312.040009,,2013-03-27 14:42:00,
2013-03-27 10:52:00,37.0,30.0,-100.00,SW,225,6.0,-999.0,74,-99.99,,,-99.99,312.040009,,2013-03-27 14:52:00,
2013-03-27 11:00:00,39.0,30.0,-100.00,SSW,202,6.0,-999.0,69,-99.99,,,-99.99,499.959991,,2013-03-27 15:00:00,
2013-03-27 11:43:00,39.0,30.0,-100.00,SSW,202,6.0,-999.0,69,-99.99,,,-99.99,499.959991,,2013-03-27 15:43:00,
2013-03-27 11:53:00,39.0,30.0,-100.00,SSW,202,6.0,-999.0,69,-99.99,,,-99.99,499.959991,,2013-03-27 15:53:00,
2013-03-27 12:00:00,37.0,28.0,-100.00,West,270,7.0,-999.0,70,-99.99,,,-99.99,555.640015,,2013-03-27 16:00:00,
2013-03-27 12:42:00,37.0,28.0,-100.00,West,270,7.0,-999.0,70,-99.99,,,-99.99,555.640015,,2013-03-27 16:42:00,
2013-03-27 12:52:00,37.0,28.0,-100.00,West,270,7.0,-999.0,70,-99.99,,,-99.99,555.640015,,2013-03-27 16:52:00,
2013-03-27 13:00:00,36.0,28.0,-100.00,WNW,292,8.0,-999.0,72,-99.99,,,-99.99,564.919983,,2013-03-27 17:00:00,
2013-03-27 13:44:00,36.0,28.0,-100.00,WNW,292,8.0,-999.0,72,-99.99,,,-99.99,564.919983,,2013-03-27 17:44:00,
2013-03-27 13:52:00,36.0,28.0,-100.00,WNW,292,8.0,-999.0,72,-99.99,,,-99.99,564.919983,,2013-03-27 17:52:00,
2013-03-27 14:00:00,36.0,28.0,-100.00,WNW,292,8.0,-999.0,72,-99.99,,,-99.99,725.000000,,2013-03-27 18:00:00,
2013-03-27 14:42:00,36.0,28.0,-100.00,WNW,292,8.0,-999.0,72,-99.99,,,-99.99,725.000000,,2013-03-27 18:42:00,
2013-03-27 14:53:00,36.0,28.0,-100.00,WNW,292,8.0,-999.0,72,-99.99,,,-99.99,725.000000,,2013-03-27 18:53:00,
2013-03-27 15:00:00,38.0,28.0,-100.00,West,270,5.0,-999.0,68,-99.99,,,-99.99,672.799988,,2013-03-27 19:00:00,
2013-03-27 15:42:00,38.0,28.0,-100.00,West,270,5.0,-999.0,68,-99.99,,,-99.99,672.799988,,2013-03-27 19:42:00,
2013-03-27 15:52:00,38.0,28.0,-100.00,West,270,5.0,-999.0,68,-99.99,,,-99.99,672.799988,,2013-03-27 19:52:00,
2013-03-27 16:00:00,38.0,29.0,-100.00,West,270,7.0,-999.0,69,-99.99,,,-99.99,648.440002,,2013-03-27 20:00:00,
2013-03-27 16:43:00,38.0,29.0,-100.00,West,270,7.0,-999.0,69,-99.99,,,-99.99,648.440002,,2013-03-27 20:43:00,
2013-03-27 16:52:00,38.0,29.0,-100.00,West,270,7.0,-999.0,69,-99.99,,,-99.99,648.440002,,2013-03-27 20:52:00,
2013-03-27 17:00:00,39.0,31.0,-100.00,WNW,292,7.0,-999.0,71,-99.99,,,-99.99,569.559998,,2013-03-27 21:00:00,
2013-03-27 17:44:00,39.0,31.0,-100.00,WNW,292,7.0,-999.0,71,-99.99,,,-99.99,569.559998,,2013-03-27 21:44:00,
2013-03-27 17:52:00,39.0,31.0,-100.00,WNW,292,7.0,-999.0,71,-99.99,,,-99.99,569.559998,,2013-03-27 21:52:00,
2013-03-27 18:00:00,41.0,30.0,-100.00,West,270,5.0,-999.0,65,-99.99,,,-99.99,408.320007,,2013-03-27 22:00:00,
2013-03-27 18:42:00,41.0,30.0,-100.00,West,270,5.0,-999.0,65,-99.99,,,-99.99,408.320007,,2013-03-27 22:42:00,
2013-03-27 18:53:00,41.0,30.0,-100.00,West,270,5.0,-999.0,65,-99.99,,,-99.99,408.320007,,2013-03-27 22:53:00,
2013-03-27 19:00:00,39.0,30.0,-100.00,WNW,292,5.0,-999.0,70,-99.99,,,-99.99,230.839996,,2013-03-27 23:00:00,
2013-03-27 19:43:00,39.0,30.0,-100.00,WNW,292,5.0,-999.0,70,-99.99,,,-99.99,230.839996,,2013-03-27 23:43:00,
2013-03-27 19:52:00,39.0,30.0,-100.00,WNW,292,5.0,-999.0,70,-99.99,,,-99.99,230.839996,,2013-03-27 23:52:00,
2013-03-27 20:00:00,37.0,29.0,-100.00,WSW,247,4.0,-999.0,74,-99.99,,,-99.99,59.160000,,2013-03-28 00:00:00,
2013-03-27 20:43:00,37.0,29.0,-100.00,WSW,247,4.0,-999.0,74,-99.99,,,-99.99,59.160000,,2013-03-28 00:43:00,
2013-03-27 20:52:00,37.0,29.0,-100.00,WSW,247,4.0,-999.0,74,-99.99,,,-99.99,59.160000,,2013-03-28 00:52:00,
2013-03-27 21:00:00,35.0,27.0,-100.00,SSW,202,5.0,-999.0,74,-99.99,,,-99.99,1.160000,,2013-03-28 01:00:00,
2013-03-27 21:42:00,35.0,27.0,-100.00,SSW,202,5.0,-999.0,74,-99.99,,,-99.99,1.160000,,2013-03-28 01:42:00,
2013-03-27 21:53:00,35.0,27.0,-100.00,SSW,202,5.0,-999.0,74,-99.99,,,-99.99,1.160000,,2013-03-28 01:53:00,
2013-03-27 22:00:00,34.0,27.0,-100.00,East,90,6.0,-999.0,75,-99.99,,,-99.99,0.000000,,2013-03-28 02:00:00,
2013-03-27 23:00:00,33.0,27.0,-100.00,SSW,202,6.0,-999.0,75,-99.99,,,-99.99,0.000000,,2013-03-28 03:00:00,
2013-03-27 23:43:00,33.0,27.0,-100.00,SSW,202,6.0,-999.0,75,-99.99,,,-99.99,0.000000,,2013-03-28 03:43:00,
2013-03-27 23:53:00,33.0,27.0,-100.00,SSW,202,6.0,-999.0,75,-99.99,,,-99.99,0.000000,,2013-03-28 03:53:00,